{"data":{"norad_id":65663,"epoch":"2026-05-25T02:55:12.928224Z","epoch_age_seconds":74931,"freshness":"FRESH","line1":"1 65663U 25211M   26145.12167741  .00001928  00000+0  13765-3 0  9998","line2":"2 65663  97.4476 189.0522 0002231 118.7212 241.4240 15.05655375 38541","mean_motion":15.05655375,"eccentricity":0.0002231,"inclination_deg":97.4476,"raan_deg":189.0522,"arg_perigee_deg":118.7212,"mean_anomaly_deg":241.424,"bstar":0.00013765,"rev_number":3854,"period_min":95.639415493735,"perigee_km":547.94911218368,"apogee_km":551.04022143341,"semimajor_km":6927.6316668085,"source":"CELESTRAK","updated_at":"2026-05-25T13:38:20.890145Z"}}